Location: Saint-Restitut
(44.3351°N, 4.7915°E)
Time: 02:25:02
(UTC+00:00)

Lacrosse 5 - Pass Details

Date: 03 February 2023
Orbit: 714 x 724 km, 57.0° (Epoch: 09 March)

Event Time Altitude Azimuth Distance (km) Brightness Sun altitude
Rises 18:25:15 0° 240° (WSW) 3,126 6.4 -16.8°
Reaches altitude 10° 18:27:40 10° 245° (WSW) 2,209 5.5 -17.2°
Maximum altitude 18:32:40 57° 324° (NW) 852 2.4 -18.1°
Enters shadow 18:35:50 22° 36° (NE) 1,543 3.2 -18.7°
